Volver al catálogo

NOAA 16

ActivoMeteoSSO
NORAD 26536·PAYLOAD·🇺🇸 United States

Lanzado Sep 21, 2000 desde Vandenberg Space Force Base

Loading…

Próximos Pases (próximas 24 horas)

TLE

ActualizadoSource: Space-Track

Época: Sep 14, 2026, 12:59 UTC

1 26536U 00055A   26257.54146055  .00000025  00000-0  34539-4 0  9999
2 26536  98.4645 267.1122 0011361  49.1338 311.0818 14.13936317636354

Sigue NOAA 16 en tiempo real con AllMySat

Download on the App Store